Zurück zum Katalog

THORAD AGENA D DEB

AktivPO
NORAD 5389·DEBRIS·🇺🇸 United States

Gestartet Apr 8, 1970 von Vandenberg Space Force Base

Loading…

Nächste Überflüge (nächste 24 Stunden)

TLE

AktuellSource: Space-Track

Epoche: Sep 14, 2026, 12:54 UTC

1 05389U 70025KU  26257.53758215 -.00000036  00000-0  62210-5 0  9993
2 05389  99.7919 285.3633 0203157 101.6411  52.5568 13.11281421699136

Verfolge THORAD AGENA D DEB in Echtzeit mit AllMySat

Download on the App Store